Location: Newark
(35.2672°N, 80.7344°W)
Time: 19:45:51
(UTC+00:00)

SR - Visible Passes

Search period start: 27 February 2021 00:00
Search period end: 09 March 2021 00:00
Orbit: 573 x 882 km, 66.7° (Epoch: 27 February)

Date Brightness Start Highest point End Pass type
(mag) Time Alt. Az. Time Alt. Az. Time Alt. Az.
27 Feb ? 00:50:55 10° S 00:55:41 53° ESE 00:56:39 46° ENE visible
27 Feb ? 02:34:29 10° W 02:36:13 16° WNW 02:36:13 16° WNW visible
27 Feb ? 09:35:06 10° N 09:39:55 25° NE 09:44:37 10° ESE visible
27 Feb ? 11:16:34 10° NW 11:22:18 50° WSW 11:27:47 10° S visible
28 Feb ? 00:02:17 10° SSE 00:06:14 24° ESE 00:10:27 10° NE visible
28 Feb ? 01:43:22 10° WSW 01:48:01 37° NW 01:50:14 26° N visible
28 Feb ? 08:46:37 10° NNE 08:49:36 14° NE 08:52:33 10° ENE visible
28 Feb ? 10:26:39 10° NNW 10:32:37 82° ENE 10:38:22 10° SSE visible
01 Mar ? 00:53:08 10° SSW 00:58:06 77° WNW 01:03:35 10° NNE visible
01 Mar ? 02:39:36 10° WNW 02:41:14 11° NW 02:42:54 10° NNW visible
01 Mar ? 09:37:05 10° NNW 09:42:43 43° ENE 09:48:11 10° SE visible
01 Mar ? 11:19:44 10° NW 11:24:33 26° WSW 11:29:14 10° SSW visible
02 Mar ? 00:03:40 10° S 00:08:25 49° ESE 00:13:39 10° NE visible
02 Mar ? 01:46:59 10° W 01:50:51 21° NW 01:54:58 10° N visible
02 Mar ? 08:48:24 12° N 08:52:36 23° NE 08:57:11 10° ESE visible
02 Mar ? 10:29:17 10° NW 10:35:03 54° WSW 10:40:35 10° S visible
03 Mar ? 00:55:59 10° SW 01:00:43 40° WNW 01:05:53 10° NNE visible
03 Mar ? 08:01:51 13° NE 08:02:16 13° NE 08:04:56 10° ENE visible
03 Mar ? 09:41:24 22° NNW 09:45:21 77° ENE 09:51:04 10° SSE visible
04 Mar ? 00:05:49 10° SSW 00:10:49 82° WNW 00:16:20 10° NNE visible
04 Mar ? 01:51:48 10° WNW 01:53:53 12° NW 01:56:02 10° NNW visible
04 Mar ? 08:55:18 40° NE 08:55:26 40° ENE 09:00:49 10° SE visible
04 Mar ? 10:34:52 21° WNW 10:37:19 28° WSW 10:42:06 10° SSW visible
05 Mar ? 00:59:30 10° WSW 01:03:32 22° NW 01:07:50 10° N visible
05 Mar ? 08:09:21 11° E 08:09:21 11° E 08:09:43 10° E visible
05 Mar ? 09:48:56 49° SSW 09:48:56 49° SSW 09:53:21 10° S visible
06 Mar ? 00:08:35 10° SW 00:13:25 43° WNW 00:18:40 10° NNE visible
06 Mar ? 09:02:58 14° SE 09:02:58 14° SE 09:03:46 10° SSE visible
07 Mar ? 01:04:05 10° WNW 01:06:32 13° NW 01:09:04 10° NNW visible
08 Mar ? 00:12:01 10° WSW 00:16:12 24° NW 00:20:39 10° N visible
